Regional Weather Roundup
Issued by NWS

Home | Current Version | Previous Version | Graphics & Text | Print | Product List | Glossary Off
Versions: 1 2 3 4 5 6 7 8 9 10 11 12 13 14 15 16 17 18 19 20 21 22 23 24 25 26 27 28 29 30 31 32 33 34 35 36 37 38 39 40 41 42 43 44 45 46 47 48 49 50

000
ASUS43 KMKX 260111
RWRWI

WISCONSIN REGIONAL WEATHER ROUNDUP
NATIONAL WEATHER SERVICE MILWAUKEE/SULLIVAN WI
800 PM CDT SAT MAR 25 2017

NOTE: "FAIR" INDICATES FEW OR NO CLOUDS BELOW 12,000 FEET WITH NO
SIGNIFICANT WEATHER AND/OR OBSTRUCTIONS TO VISIBILITY.

WIZ001-002-006>008-014>016-023>028-260200-
NORTHWEST WISCONSIN

CITY           SKY/WX    TMP DP  RH WIND       PRES   REMARKS
SUPERIOR ARPT  CLOUDY    32  31  94 NE15G22   30.18S WCI  22
ASHLAND        CLOUDY    32  29  88 NE10      30.18S WCI  24
HAYWARD        CLOUDY    41  29  62 E8        30.11S
SIREN          CLOUDY    42  31  63 CALM      30.10S
CUMBERLAND     CLOUDY    37  32  81 E7        30.08F WCI  32
RICE LAKE      CLOUDY    40  33  76 E12G17    30.10F WCI  33
CHETEK         CLOUDY    37  36  93 NE6       30.09F WCI  33
LADYSMITH      CLOUDY    39  33  77 E9        30.12S HAZE    WCI  33
EAU CLAIRE     CLOUDY    38  35  89 NE9       30.07F WCI  31
MENOMONIE      CLOUDY    38  37  92 NE8       30.08S WCI  33
NEW RICHMOND   CLOUDY    38  34  84 E10       30.07S WCI  31
OSCEOLA        CLOUDY    41  33  73 E8        30.10F
$$

WIZ003>005-009-010-017-018-260200-
NORTH CENTRAL WISCONSIN

CITY           SKY/WX    TMP DP  RH WIND       PRES   REMARKS
MANITOWISH WTR CLOUDY    35  32  87 E5        30.12F WCI  31
ARBOR VITAE    CLOUDY    39  32  75 E5        30.11F
WOODRUFF       CLOUDY    39  32  75 E5        30.11F
RHINELANDER    CLOUDY    37  30  75 E16       30.13S WCI  28
EAGLE RIVER    CLOUDY    37  27  69 E12       30.13S WCI  29
LAND O LAKES   CLOUDY    37  31  79 E7        30.16S WCI  31
PHILLIPS       CLOUDY    37  32  82 E10       30.11S WCI  30
TOMAHAWK       DRIZZLE   34  31  89 E7        30.13R WCI  28
MEDFORD        CLOUDY    34  32  92 E14G20    30.08F WCI  24
MERRILL        LGT RAIN  34  32  92 E10G20    30.13R WCI  26
$$

WIZ029-030-035-036-043>047-260200-
CENTRAL WISCONSIN

CITY           SKY/WX    TMP DP  RH WIND       PRES   REMARKS
WAUSAU         CLOUDY    33  31  92 E8        30.10F WCI  26
MOSINEE        DRIZZLE   32  32 100 E16       30.11F WCI  21
MARSHFIELD     CLOUDY    33  31  92 E18       30.08S WCI  22
STEVENS POINT  CLOUDY    31  31 100 E14G21    30.11F WCI  21
WAUPACA        CLOUDY    36  34  92 NE5       30.13S WCI  32
WAUTOMA        LGT RAIN  35  34  96 NE14      30.09F WCI  26
WISC RAPIDS    CLOUDY    34  33  96 E13G20    30.10F WCI  25
CAMP DOUGLAS   LGT RAIN  36  36 100 E10       30.07S FOG     WCI  28
$$

WIZ011>013-019>022-031-037>040-048>050-260200-
NORTHEAST WISCONSIN

CITY           SKY/WX    TMP DP  RH WIND       PRES   REMARKS
ANTIGO         CLOUDY    31  31  98 E13G22    30.13F WCI  22
SHAWANO        CLOUDY    35  32  90 NE10G17   30.16S FOG     WCI  27
OCONTO         CLOUDY    33  32  96 NE6       30.18S WCI  27
STURGEON BAY   LGT RAIN  35  34  96 NE10      30.18S WCI  27
GREEN BAY      LGT RAIN  35  35 100 NE15      30.15S WCI  25
MANITOWOC      LGT RAIN  38  32  79 NE8       30.14S WCI  32
APPLETON       LGT RAIN  34  34 100 NE13G23   30.10F WCI  25
CLINTONVILLE   HVY RAIN  32  32 100 NE9       30.14F WCI  24
OSHKOSH        CLOUDY    36  35  96 NE10      30.10S WCI  28
$$

WIZ032>034-041-042-053>061-260200-
SOUTHWEST WISCONSIN

CITY           SKY/WX    TMP DP  RH WIND       PRES   REMARKS
LA CROSSE      LGT RAIN  39  35  86 E9        30.05R FOG     WCI  33
SPARTA         CLOUDY    35  35  98 E10       30.06S FOG     WCI  28
VIROQUA        CLOUDY    36  36 100 E20       30.01S WCI  25
BOSCOBEL       CLOUDY    40  38  93 NE10G20   30.01S FOG     WCI  33
PRAIRIE DU CHI CLOUDY    39  38  97 NE6       30.00S FOG     WCI  34
PLATTEVILLE    CLOUDY    40  40 100 NE20G25   29.96F WCI  30
$$

WIZ056-057-062-063-064-067-068-260200-
SOUTH CENTRAL WISCONSIN

CITY           SKY/WX    TMP DP  RH WIND       PRES   REMARKS
REEDSBURG      CLOUDY    36  36 100 E9G16     30.05S WCI  29
BARABOO/DELLS  CLOUDY    36  35  97 NE12      30.05S FOG     WCI  28
LONE ROCK      CLOUDY    40  37  89 E14       30.03S FOG     WCI  32
MINERAL POINT  CLOUDY    39  39 100 E16G23    29.97F FOG     WCI  30
MADISON        CLOUDY    39  37  92 E14       30.04R WCI  31
MIDDLETON      CLOUDY    40  39  97 E14       30.03S WCI  32
WATERTOWN      CLOUDY    38  38 100 E13G18    30.03F WCI  31
MONROE         CLOUDY    37  37 100 NE17      29.97F WCI  28
JANESVILLE     CLOUDY    41  41 100 E12       29.99S FOG
$$

WIZ051-052-058>065-066-070>072-260200-
SOUTHEAST WISCONSIN

CITY           SKY/WX    TMP DP  RH WIND       PRES   REMARKS
MILWAUKEE      LGT RAIN  39  36  89 NE14      30.06F WCI  31
WAUKESHA       CLOUDY    36  36 100 NE13      30.06S FOG     WCI  27
MILWAUKEE/TIMM DRIZZLE   37  36  93 NE8       30.08S WCI  31
RACINE         CLOUDY    39  36  89 NE13      30.06F WCI  31
KENOSHA        LGT RAIN  40  39  97 NE13      30.02F FOG     WCI  32
FOND DU LAC    CLOUDY    38  34  85 E13       30.09S WCI  30
SHEBOYGAN      CLOUDY    37  35  92 NE13      30.11S WCI  29
WEST BEND      CLOUDY    36  36 100 E14       30.08S WCI  27
JUNEAU         CLOUDY    37  37  97 NE7G17    30.07S WCI  32
$$

LSZ147-162-260200-
LAKE SUPERIOR

STATION/POSITION TIME  TEMP    WIND        PRES    WAVE
                       AIR SEA DIR/SP/G            HT/PER
                 (UTC) (F)     (DEG/KT/KT) (MB)    (FT/S)
DEVILS ISLAND    0000   33      70/ 21/ 25 1023.9F
PORT WING        0030   34      50/ 10/ 13 1022.4S
SAXON HARBOR     0030   33      70/  6/ 12 1021.3F
$$

LMZ867-665-643>646-260200-
LAKE MICHIGAN

STATION/POSITION TIME  TEMP    WIND        PRES    WAVE
                       AIR SEA DIR/SP/G            HT/PER
                 (UTC) (F)     (DEG/KT/KT) (MB)    (FT/S)
CHAMBERS ISLAND  0040   33      30/ 12/ 16 1022.4R
NORTHPORT PIER   0040   35      60/ 16/ 22 1023.0S
SISTER BAY       2236   35     110/  7/ 13   N/A
KEWAUNEE LAKESHO 0048   36      40/ 11/ 13 1020.8R
SHEBOYGAN LAKESH 0100   37      20/ 15/ 16 1020.2R
PORT WASHINGTON  0040   39      40/ 13/ 17 1020.0F
MILWAUKEE LAKESH 0050   38      20/ 17/ 19   N/A
KENOSHA   LAKESH 0100   38      20/ 18/ 20 1016.9
$$

TC  - TEMPERATURE IN CELSIUS
VSB - VISIBILITY IN STATUTE MILES
WCI - WIND CHILL INDEX
HX  - HEAT INDEX





USA.gov is the U.S. government's official web portal to all federal, state and local government web resources and services.